Location: Risskov
(56.1972°N, 10.2480°E)
Time: 23:05:03
(UTC+00:00)

BlueWalker 3 - Visible Passes

Search period start: 26 November 2022 00:00
Search period end: 06 December 2022 00:00
Orbit: 500 x 519 km, 53.2° (Epoch: 26 November)

Date Brightness Start Highest point End Pass type
(mag) Time Alt. Az. Time Alt. Az. Time Alt. Az.
26 Nov 4.1 16:13:34 10° S 16:15:54 15° SE 16:18:09 10° ESE visible
26 Nov 3.1 17:50:11 10° SW 17:52:59 34° SSW 17:52:59 34° SSW visible
27 Nov 4.1 15:55:06 10° S 15:57:33 16° SE 15:59:59 10° ESE visible
27 Nov 2.7 17:31:50 10° SW 17:35:25 40° SSE 17:35:25 40° SSE visible
27 Nov 5.2 19:10:03 10° W 19:10:15 11° W 19:10:15 11° W visible
28 Nov 4.1 15:36:38 10° S 15:39:11 17° SE 15:41:43 10° ESE visible
28 Nov 2.6 17:13:28 10° SW 17:17:10 41° SSE 17:17:49 38° SE visible
28 Nov 4.8 18:51:43 10° W 18:52:39 16° WSW 18:52:39 16° WSW visible
29 Nov 2.7 16:55:07 10° SW 16:58:50 42° SSE 17:00:12 30° ESE visible
29 Nov 4.2 18:33:22 10° W 18:35:02 23° WSW 18:35:02 23° WSW visible
30 Nov 2.7 16:36:44 10° SW 16:40:28 43° SSE 16:42:34 22° ESE visible
30 Nov 3.6 18:15:02 10° W 18:17:23 33° WSW 18:17:23 33° WSW visible
01 Dec 2.7 16:18:22 10° WSW 16:22:07 44° SSE 16:24:55 16° E visible
01 Dec 2.9 17:56:40 10° W 17:59:45 45° SW 17:59:45 45° SW visible
02 Dec 2.7 15:59:59 10° WSW 16:03:45 45° SSE 16:07:17 11° E visible
02 Dec 2.4 17:38:18 10° W 17:42:06 54° S 17:42:06 54° S visible
03 Dec 2.8 15:41:36 10° WSW 15:45:22 46° SSE 15:49:08 10° E visible
03 Dec 2.4 17:19:57 10° W 17:23:47 54° S 17:24:30 46° SE visible
03 Dec 5.0 18:58:36 10° W 18:59:19 14° W 18:59:19 14° W visible
04 Dec 2.5 17:01:34 10° W 17:05:24 53° S 17:06:54 32° SE visible
04 Dec 4.5 18:40:14 10° W 18:41:44 19° WSW 18:41:44 19° WSW visible
05 Dec 2.5 16:43:11 10° W 16:47:01 53° S 16:49:22 21° ESE visible
05 Dec 4.1 18:21:52 10° W 18:24:12 24° SW 18:24:12 24° SW visible
